TimeCST,TemperatureF,Dew PointF,Humidity,Sea Level PressureIn,VisibilityMPH,Wind Direction,Wind SpeedMPH,Gust SpeedMPH,PrecipitationIn,Events,Conditions,WindDirDegrees,DateUTC
12:54 AM,37.9,17.1,43,30.34,10.0,NW,26.5,40.3,N/A,,Clear,320,2012-11-23 06:54:00
1:54 AM,32.0,14.0,48,30.38,10.0,NW,25.3,34.5,N/A,,Clear,320,2012-11-23 07:54:00
2:54 AM,30.0,15.1,54,30.41,10.0,NNW,23.0,27.6,N/A,,Clear,330,2012-11-23 08:54:00
3:54 AM,28.0,12.9,53,30.43,10.0,NW,19.6,27.6,N/A,,Clear,320,2012-11-23 09:54:00
4:54 AM,27.0,12.9,56,30.47,10.0,NW,18.4,24.2,N/A,,Clear,320,2012-11-23 10:54:00
5:54 AM,25.0,12.9,60,30.49,10.0,NW,16.1,-,N/A,,Clear,310,2012-11-23 11:54:00
6:54 AM,24.1,12.9,62,30.51,10.0,NW,13.8,-,N/A,,Clear,310,2012-11-23 12:54:00
7:54 AM,24.1,12.0,60,30.54,10.0,NW,12.7,-,N/A,,Clear,320,2012-11-23 13:54:00
8:54 AM,25.0,12.9,60,30.56,10.0,NW,17.3,-,N/A,,Clear,320,2012-11-23 14:54:00
9:54 AM,27.0,10.9,51,30.58,10.0,NNW,17.3,-,N/A,,Clear,330,2012-11-23 15:54:00
10:54 AM,30.0,9.0,41,30.58,10.0,NW,19.6,-,N/A,,Clear,310,2012-11-23 16:54:00
11:54 AM,33.1,7.0,34,30.56,10.0,NW,16.1,-,N/A,,Clear,320,2012-11-23 17:54:00
12:54 PM,34.0,6.1,31,30.54,10.0,NW,15.0,-,N/A,,Clear,310,2012-11-23 18:54:00
1:54 PM,36.0,5.0,27,30.52,10.0,NNW,16.1,23.0,N/A,,Clear,340,2012-11-23 19:54:00
2:54 PM,36.0,3.0,25,30.52,10.0,NW,15.0,-,N/A,,Clear,320,2012-11-23 20:54:00
3:54 PM,36.0,3.9,26,30.52,10.0,NNW,13.8,-,N/A,,Clear,330,2012-11-23 21:54:00
4:54 PM,34.0,5.0,30,30.51,10.0,NW,8.1,-,N/A,,Clear,320,2012-11-23 22:54:00
5:54 PM,30.9,3.9,32,30.51,10.0,NW,4.6,-,N/A,,Clear,310,2012-11-23 23:54:00
6:54 PM,23.0,5.0,46,30.52,10.0,Calm,Calm,-,N/A,,Clear,0,2012-11-24 00:54:00
7:54 PM,26.1,5.0,41,30.50,10.0,Calm,Calm,-,N/A,,Clear,0,2012-11-24 01:54:00
8:54 PM,21.9,8.1,55,30.50,10.0,Calm,Calm,-,N/A,,Clear,0,2012-11-24 02:54:00
9:54 PM,19.9,6.1,55,30.48,10.0,Calm,Calm,-,N/A,,Clear,0,2012-11-24 03:54:00
10:54 PM,19.9,7.0,57,30.47,10.0,Calm,Calm,-,N/A,,Clear,0,2012-11-24 04:54:00
11:54 PM,18.0,7.0,62,30.46,10.0,Calm,Calm,-,N/A,,Clear,0,2012-11-24 05:54:00